Location: Moscow
(38.8570°N, 84.2291°W)
Time: 20:22:48
(UTC+00:00)

NANOSAT C BR1 - Pass Details

Date: 14 March 2026
Orbit: 474 x 480 km, 98.1° (Epoch: 21 April)

Event Time Altitude Azimuth Distance (km) Brightness Sun altitude
Rises 01:06:05 0° 205° (SSW) 2,542 ? -17.1°
Reaches altitude 10° 01:08:51 10° 229° (SW) 1,667 ? -17.6°
Maximum altitude 01:10:58 15° 266° (W) 1,388 ? -18.0°
Drops below altitude 10° 01:13:06 10° 302° (WNW) 1,673 ? -18.4°
Sets 01:15:54 0° 327° (NNW) 2,557 ? -19.0°
